Location: Nelson
(41.2830°S, 173.2830°E)
Time: 07:21:14
(UTC+12:00)

ISS - Pass Details

Date: 21 May 2025
Orbit: 415 x 416 km, 51.6° (Epoch: 16 June)

Event Time Altitude Azimuth Distance (km) Brightness Sun altitude
Exits shadow 06:37:25 15° 235° (SW) 1,251 -2.0 -10.6°
Maximum altitude 06:39:05 21° 197° (SSW) 1,037 -2.1 -10.3°
Drops below altitude 10° 06:41:46 10° 146° (SSE) 1,532 -0.7 -9.8°
Sets 06:44:15 0° 129° (SE) 2,402 0.6 -9.4°
